User: anonymous   Login
Location: Étavigny
(49.1201°N, 2.9800°E)
Time: 09:22:06
(UTC+00:00)
Language:

FENGYUN 1C DEB - Orbit

View from above orbital plane
View from above orbital plane
View from above satellite
View from above satellite

Ground track
Ground track

The orbit data is extracted from the following two-line orbital elements,

1 31416U 99025BTC 24202.77688046  .00002507  00000-0  75106-3 0  9992
2 31416  99.1020 216.4126 0136670 312.6363  46.3366 14.38559791581810
Epoch (UTC): 20 July 2024 18:38:42
Eccentricity: 0.0136670
inclination: 99.1020°
perigee height: 665 km
apogee height: 861 km
right ascension of ascending node: 216.4126°
argument of perigee: 312.6363°
revolutions per day: 14.38559791
mean anomaly at epoch: 46.3366°
orbit number at epoch: 58181

The dashed part of the orbit path shows where the satellite is in the earth's shadow,  

DLR